Yatton Keynell, United Kingdom

7:20 AM GMT on March 26, 2019 (GMT +0000)
Yatton Keynell

Weather History for 03740 - July, 1998

Change the Weather History Date:

Friday, July 10, 1998

  Actual Average Record
Temperature  
Mean Temperature 62 °F -  
Max Temperature 66 °F 69 °F - ()
Min Temperature 57 °F 53 °F - ()
Degree Days  
Heating Degree Days 4    
Growing Degree Days 12 (Base 50)    
Moisture  
Dew Point 54 °F    
Average Humidity 82    
Maximum Humidity 94    
Minimum Humidity 60    
Precipitation  
Precipitation 0.00 in 0.07 in - ()
Sea Level Pressure  
Sea Level Pressure 29.89 in    
Wind  
Wind Speed 6 mph ()    
Max Wind Speed 17 mph    
Max Gust Speed -    
Visibility 5.8 miles    
Events Rain    
T = Trace of Precipitation, MM = Missing Value Source: Averaged Metar Reports

Daily Weather History Graph

Daily Weather History Graph

Search for Another Location

Airport or City:

Astronomy

Jul. 10, 1998 Rise Set
Actual Time 5:02 AM BST 9:23 PM BST
Civil Twilight 4:16 AM BST 10:08 PM BST
Nautical Twilight 3:08 AM BST 11:16 PM BST
Astronomical Twilight 1:45 AM BST 12:40 AM BST
Moon 9:44 PM BST (7/10) 6:00 AM BST (7/10)
Length of Visible Light 17h 52m
Length of Day
16h 20m
Full, 99% of the Moon is Illuminated
Jul 10
Full
Jul 16
Last Quarter
Jul 23
New
Jul 31
First Quarter
Aug 8
Full

Hourly Weather History & Observations

Time (BST) Temp. Dew Point Humidity Pressure Visibility Wind Dir Wind Speed Gust Speed Precip Events Conditions
12:50 AM 59.0 °F 53.6 °F 82% 29.95 in - West 3.5 mph - N/A   Clear
1:50 AM 57.2 °F 51.8 °F 82% 29.95 in 6.2 mi WNW 3.5 mph - N/A   Mostly Cloudy
2:50 AM 57.2 °F 53.6 °F 88% 29.92 in 6.2 mi West 3.5 mph - N/A   Mostly Cloudy
3:50 AM 57.2 °F 53.6 °F 88% 29.92 in 6.2 mi WNW 2.3 mph - N/A   Mostly Cloudy
4:50 AM 57.2 °F 53.6 °F 88% 29.92 in 6.2 mi Calm Calm - N/A   Mostly Cloudy
5:50 AM 57.2 °F 53.6 °F 88% 29.92 in 6.2 mi Calm Calm - N/A   Mostly Cloudy
6:50 AM 57.2 °F 53.6 °F 88% 29.92 in 6.2 mi Calm Calm - N/A   Mostly Cloudy
7:50 AM 59.0 °F 51.8 °F 77% 29.92 in 6.2 mi Calm Calm - N/A   Mostly Cloudy
8:50 AM 59.0 °F 55.4 °F 88% 29.92 in 3.1 mi SSW 4.6 mph - N/A   Light Drizzle
9:50 AM 57.2 °F 55.4 °F 94% 29.92 in 3.1 mi WNW 8.1 mph - N/A   Light Drizzle
10:50 AM 59.0 °F 55.4 °F 88% 29.92 in 6.2 mi WSW 9.2 mph - N/A   Overcast
11:50 AM 59.0 °F 53.6 °F 82% 29.92 in 6.2 mi WSW 10.4 mph - N/A Rain Light Rain Showers
12:50 PM 62.6 °F 53.6 °F 72% 29.89 in 6.2 mi WSW 13.8 mph - N/A   Mostly Cloudy
1:50 PM 64.4 °F 53.6 °F 68% 29.89 in 6.2 mi WSW 13.8 mph - N/A   Mostly Cloudy
2:50 PM 64.4 °F 51.8 °F 64% 29.89 in 6.2 mi WSW 17.3 mph - N/A   Mostly Cloudy
3:50 PM 64.4 °F 51.8 °F 64% 29.86 in 6.2 mi WSW 13.8 mph - N/A   Scattered Clouds
4:50 PM 66.2 °F 51.8 °F 60% 29.86 in 6.2 mi WSW 13.8 mph - N/A   Scattered Clouds
5:50 PM 64.4 °F 51.8 °F 64% 29.86 in 6.2 mi WSW 13.8 mph - N/A   Mostly Cloudy
6:50 PM 60.8 °F 53.6 °F 77% 29.86 in 6.2 mi WSW 17.3 mph - N/A Rain Light Rain
7:50 PM 59.0 °F 57.2 °F 94% 29.83 in 5.0 mi SW 10.4 mph - N/A Rain Light Rain
8:50 PM 59.0 °F 57.2 °F 94% 29.83 in 5.0 mi SW 6.9 mph - N/A Rain Light Rain
9:50 PM 59.0 °F 57.2 °F 94% 29.83 in 6.2 mi WSW 13.8 mph - N/A   Mostly Cloudy
10:50 PM 57.2 °F 55.4 °F 94% 29.83 in 6.2 mi WSW 12.7 mph - N/A   Mostly Cloudy
11:50 PM 57.2 °F 55.4 °F 94% 29.83 in 6.2 mi WSW 12.7 mph - N/A   Mostly Cloudy